KK4WXG Weather Reports


Display with metric or nautical units.
time (UTC)temp
F
wind
direction
speed
MPH
gust
MPH
rain 1hr
in
rain 24hr
in
rain mn
in
humidity
%
barometer
mb
20260506033530 70 208 5.0 10.0 0.00 0.00 0.00 44 1009.7
20260506033027 70 202 4.0 10.0 0.00 0.00 0.00 44 1009.6
20260506032524 70 216 6.0 10.0 0.00 0.00 0.00 44 1009.4
20260506032020 70 203 6.0 8.0 0.00 0.00 0.00 44 1009.5
20260506031519 69 202 4.0 7.0 0.00 0.00 0.00 44 1009.4
20260506031015 70 203 6.0 9.0 0.00 0.00 0.00 43 1009.4
20260506030513 70 205 4.0 8.0 0.00 0.00 0.00 44 1009.5
20260506030010 70 203 6.0 9.0 0.00 0.00 0.00 43 1009.5
20260506025507 70 202 4.0 7.0 0.00 0.00 0.00 43 1009.5
20260506025003 71 214 7.0 11.0 0.00 0.00 0.00 42 1009.6
20260506024500 71 203 12.0 12.0 0.00 0.00 0.00 41 1009.6
20260506023956 71 212 5.0 10.0 0.00 0.00 0.00 42 1009.4
20260506023453 71 204 7.0 9.0 0.00 0.00 0.00 41 1009.7
20260506022950 71 201 6.0 9.0 0.00 0.00 0.00 41 1009.4
20260506022447 71 202 7.0 10.0 0.00 0.00 0.00 40 1009.6
20260506021945 71 205 7.0 11.0 0.00 0.00 0.00 40 1009.5
20260506021442 71 206 10.0 11.0 0.00 0.00 0.00 40 1009.5
20260506020939 72 212 8.0 9.0 0.00 0.00 0.00 39 1009.5
20260506020437 72 201 6.0 11.0 0.00 0.00 0.00 39 1009.6
20260506015934 72 208 8.0 11.0 0.00 0.00 0.00 38 1009.6
20260506015431 72 211 6.0 13.0 0.00 0.00 0.00 39 1009.6
20260506014928 72 204 6.0 12.0 0.00 0.00 0.00 38 1009.4
20260506014425 72 206 7.0 10.0 0.00 0.00 0.00 37 1009.3
20260506013921 72 208 6.0 9.0 0.00 0.00 0.00 38 1009.4
20260506013420 72 204 7.0 8.0 0.00 0.00 0.00 37 1009.5
20260506012916 72 206 6.0 9.0 0.00 0.00 0.00 37 1009.1
20260506012412 73 217 8.0 8.0 0.00 0.00 0.00 36 1009.2
20260506011909 73 197 7.0 8.0 0.00 0.00 0.00 35 1009.1
20260506011407 73 202 7.0 11.0 0.00 0.00 0.00 35 1009.1
20260506010903 73 202 6.0 9.0 0.00 0.00 0.00 35 1009.1
20260506010402 73 200 4.0 8.0 0.00 0.00 0.00 34 1009.1
20260506005858 74 197 7.0 12.0 0.00 0.00 0.00 34 1009.0
20260506005355 74 205 9.0 15.0 0.00 0.00 0.00 33 1008.8
20260506004851 74 200 9.0 16.0 0.00 0.00 0.00 33 1009.1
20260506004349 74 195 7.0 12.0 0.00 0.00 0.00 33 1008.8
20260506003845 74 222 10.0 13.0 0.00 0.00 0.00 32 1008.9
20260506003341 75 209 13.0 14.0 0.00 0.00 0.00 31 1008.8
20260506002838 75 208 10.0 13.0 0.00 0.00 0.00 32 1008.5
20260506002334 75 206 5.0 14.0 0.00 0.00 0.00 31 1008.8
20260506001829 75 215 8.0 10.0 0.00 0.00 0.00 31 1008.5
20260506001327 75 207 6.0 12.0 0.00 0.00 0.00 31 1008.5
20260506000824 76 213 7.0 13.0 0.00 0.00 0.00 31 1008.5
20260506000323 76 211 6.0 12.0 0.00 0.00 0.00 31 1008.5
20260505235818 76 207 8.0 13.0 0.00 0.00 0.00 31 1008.6
20260505235316 76 219 10.0 14.0 0.00 0.00 0.00 30 1008.4
20260505234813 77 183 7.0 15.0 0.00 0.00 0.00 30 1008.4
20260505234311 77 216 11.0 13.0 0.00 0.00 0.00 31 1008.3
20260505233807 77 210 10.0 15.0 0.00 0.00 0.00 30 1008.4
20260505233305 77 206 6.0 15.0 0.00 0.00 0.00 32 1008.3
20260505232802 78 219 17.0 17.0 0.00 0.00 0.00 30 1008.3
20260505232259 78 218 11.0 17.0 0.00 0.00 0.00 31 1008.2
20260505231755 78 210 9.0 19.0 0.00 0.00 0.00 31 1008.3
20260505231254 78 212 11.0 18.0 0.00 0.00 0.00 30 1008.2
20260505230752 79 213 13.0 15.0 0.00 0.00 0.00 30 1008.0
20260505230249 79 204 13.0 22.0 0.00 0.00 0.00 29 1008.4
20260505225745 78 204 11.0 14.0 0.00 0.00 0.00 31 1008.2
20260505225243 78 222 7.0 12.0 0.00 0.00 0.00 32 1008.2
20260505224737 79 212 9.0 18.0 0.00 0.00 0.00 32 1008.2
20260505224235 79 216 9.0 14.0 0.00 0.00 0.00 32 1008.2
20260505223733 80 194 6.0 16.0 0.00 0.00 0.00 30 1008.2
20260505223229 80 206 7.0 20.0 0.00 0.00 0.00 32 1008.5
20260505222725 80 188 8.0 17.0 0.00 0.00 0.00 30 1008.2
20260505222221 80 180 8.0 17.0 0.00 0.00 0.00 29 1008.3
20260505221719 79 204 10.0 17.0 0.00 0.00 0.00 31 1008.3
20260505221215 79 190 13.0 17.0 0.00 0.00 0.00 29 1008.2
20260505220712 80 215 14.0 21.0 0.00 0.00 0.00 29 1008.2
20260505220210 80 219 15.0 19.0 0.00 0.00 0.00 29 1008.4
20260505215708 80 217 12.0 16.0 0.00 0.00 0.00 31 1008.2
20260505215205 80 213 12.0 16.0 0.00 0.00 0.00 30 1008.1
20260505214703 80 206 12.0 16.0 0.00 0.00 0.00 30 1008.3
20260505214200 80 221 18.0 19.0 0.00 0.00 0.00 30 1008.4
20260505213657 80 207 9.0 14.0 0.00 0.00 0.00 31 1008.3
20260505213154 80 208 11.0 16.0 0.00 0.00 0.00 31 1008.3
20260505212650 80 209 10.0 16.0 0.00 0.00 0.00 32 1008.3
20260505212148 80 212 9.0 25.0 0.00 0.00 0.00 32 1008.1
20260505211645 80 212 11.0 15.0 0.00 0.00 0.00 31 1008.1
20260505211142 80 209 14.0 20.0 0.00 0.00 0.00 30 1008.1
20260505210638 80 206 16.0 18.0 0.00 0.00 0.00 31 1008.1
20260505210135 80 218 13.0 15.0 0.00 0.00 0.00 33 1008.2
20260505205633 80 209 25.0 25.0 0.00 0.00 0.00 30 1008.3
20260505205131 81 218 15.0 19.0 0.00 0.00 0.00 33 1008.3
20260505204627 81 219 8.0 16.0 0.00 0.00 0.00 32 1008.2
20260505204125 81 212 10.0 19.0 0.00 0.00 0.00 33 1008.2
20260505203621 81 205 15.0 17.0 0.00 0.00 0.00 32 1008.1
20260505203119 81 196 9.0 20.0 0.00 0.00 0.00 33 1008.1
20260505202614 81 193 12.0 24.0 0.00 0.00 0.00 32 1007.9
20260505202111 81 216 12.0 20.0 0.00 0.00 0.00 33 1008.1
20260505201607 81 204 13.0 21.0 0.00 0.00 0.00 32 1008.0
20260505201105 82 211 8.0 19.0 0.00 0.00 0.00 34 1008.1
20260505200603 82 218 14.0 22.0 0.00 0.00 0.00 32 1007.9
20260505200100 82 189 7.0 19.0 0.00 0.00 0.00 33 1008.1
20260505195555 83 217 19.0 19.0 0.00 0.00 0.00 33 1008.1
20260505195053 82 173 12.0 22.0 0.00 0.00 0.00 33 1008.2
20260505194550 82 204 14.0 24.0 0.00 0.00 0.00 33 1008.0
20260505194046 83 208 19.0 27.0 0.00 0.00 0.00 33 1008.0
20260505193543 82 158 10.0 16.0 0.00 0.00 0.00 34 1008.3
20260505193040 82 215 16.0 27.0 0.00 0.00 0.00 36 1008.2
20260505192539 82 205 15.0 24.0 0.00 0.00 0.00 35 1008.6
20260505192036 82 183 5.0 19.0 0.00 0.00 0.00 36 1008.5
20260505191534 82 206 13.0 28.0 0.00 0.00 0.00 36 1008.3
20260505191032 82 207 16.0 19.0 0.00 0.00 0.00 35 1008.4
20260505190532 82 204 7.0 21.0 0.00 0.00 0.00 36 1008.8
20260505190028 82 171 9.0 16.0 0.00 0.00 0.00 35 1008.8
20260505185525 82 209 11.0 18.0 0.00 0.00 0.00 37 1008.8
20260505185021 82 202 11.0 18.0 0.00 0.00 0.00 36 1008.8
20260505184518 82 199 4.0 14.0 0.00 0.00 0.00 38 1008.9
20260505184015 82 212 16.0 21.0 0.00 0.00 0.00 35 1009.1
20260505183512 82 216 8.0 13.0 0.00 0.00 0.00 40 1009.2
20260505183009 81 225 9.0 16.0 0.00 0.00 0.00 36 1009.2
20260505182506 81 196 11.0 17.0 0.00 0.00 0.00 37 1009.4
20260505182002 81 201 11.0 20.0 0.00 0.00 0.00 38 1009.3
20260505181459 81 199 15.0 16.0 0.00 0.00 0.00 37 1009.3
20260505180956 82 216 12.0 15.0 0.00 0.00 0.00 38 1009.3
20260505180452 81 206 14.0 16.0 0.00 0.00 0.00 36 1009.8
20260505175949 81 196 6.0 15.0 0.00 0.00 0.00 37 1009.6
20260505175445 81 234 10.0 14.0 0.00 0.00 0.00 37 1009.5
20260505174942 80 200 9.0 16.0 0.00 0.00 0.00 37 1009.6
20260505174439 80 203 11.0 21.0 0.00 0.00 0.00 36 1009.8
20260505173935 80 210 11.0 17.0 0.00 0.00 0.00 39 1009.8
20260505173432 80 207 15.0 17.0 0.00 0.00 0.00 36 1009.8
20260505172929 80 200 11.0 16.0 0.00 0.00 0.00 36 1009.9
20260505172427 80 201 13.0 16.0 0.00 0.00 0.00 37 1010.1
20260505171926 80 180 6.0 15.0 0.00 0.00 0.00 37 1009.7
20260505171424 79 201 13.0 19.0 0.00 0.00 0.00 37 1010.1
20260505170920 79 222 11.0 22.0 0.00 0.00 0.00 39 1010.1
20260505170417 80 207 11.0 17.0 0.00 0.00 0.00 39 1010.1
20260505165912 79 202 5.0 16.0 0.00 0.00 0.00 39 1010.3
20260505165408 80 212 7.0 11.0 0.00 0.00 0.00 41 1010.2
20260505164903 79 235 14.0 19.0 0.00 0.00 0.00 38 1010.3
20260505164401 79 235 13.0 21.0 0.00 0.00 0.00 37 1010.4
20260505163859 79 236 5.0 12.0 0.00 0.00 0.00 43 1010.7
20260505163358 79 209 6.0 14.0 0.00 0.00 0.00 39 1010.7
20260505162855 80 191 2.0 9.0 0.00 0.00 0.00 42 1010.4
20260505162351 79 211 5.0 13.0 0.00 0.00 0.00 39 1010.7
20260505161848 79 244 7.0 14.0 0.00 0.00 0.00 41 1010.8
20260505161345 78 216 7.0 13.0 0.00 0.00 0.00 43 1010.6
20260505160843 78 196 15.0 16.0 0.00 0.00 0.00 38 1011.0
20260505160341 79 229 7.0 12.0 0.00 0.00 0.00 39 1010.8
20260505153320 78 259 7.0 15.0 0.00 0.00 0.00 42 1011.1
20260505152817 78 217 14.0 17.0 0.00 0.00 0.00 40 1011.2
20260505152314 78 199 7.0 15.0 0.00 0.00 0.00 41 1011.0
20260505151814 78 205 8.0 11.0 0.00 0.00 0.00 43 1011.4
20260505151310 78 206 7.0 13.0 0.00 0.00 0.00 40 1011.3
20260505150808 78 222 10.0 11.0 0.00 0.00 0.00 44 1010.9
20260505150305 77 211 9.0 14.0 0.00 0.00 0.00 42 1011.0
20260505140229 74 220 6.0 11.0 0.00 0.00 0.00 46 1010.8
20260505130153 68 161 6.0 7.0 0.00 0.00 0.00 57 1011.4
20260505124643 67 205 6.0 7.0 0.00 0.00 0.00 59 1011.4
20260505124139 66 220 6.0 9.0 0.00 0.00 0.00 61 1011.7
20260505123635 66 192 4.0 5.0 0.00 0.00 0.00 63 1011.8
20260505123132 65 203 4.0 6.0 0.00 0.00 0.00 63 1011.8
20260505122629 64 228 11.0 11.0 0.00 0.00 0.00 64 1011.9
20260505122126 64 226 6.0 15.0 0.00 0.00 0.00 63 1011.7
20260505121623 63 214 4.0 10.0 0.00 0.00 0.00 65 1011.8
20260505121119 63 203 6.0 8.0 0.00 0.00 0.00 66 1011.7
20260505120615 62 206 6.0 9.0 0.00 0.00 0.00 67 1011.7
20260505120111 62 189 3.0 6.0 0.00 0.00 0.00 68 1011.8
20260505115606 61 216 5.0 6.0 0.00 0.00 0.00 69 1011.6
20260505115104 61 215 5.0 8.0 0.00 0.00 0.00 68 1011.5
20260505114601 60 201 6.0 8.0 0.00 0.00 0.00 69 1011.4
20260505114057 60 204 5.0 10.0 0.00 0.00 0.00 70 1011.4
20260505113553 60 210 3.0 6.0 0.00 0.00 0.00 72 1011.4
20260505113050 59 205 2.0 6.0 0.00 0.00 0.00 74 1011.3
20260505112547 58 188 2.0 4.0 0.00 0.00 0.00 75 1011.5
20260505112045 58 182 3.0 3.0 0.00 0.00 0.00 75 1011.3
20260505111544 56 172 2.0 3.0 0.00 0.00 0.00 77 1011.0
20260505111040 56 180 2.0 2.0 0.00 0.00 0.00 78 1011.3
20260505110537 55 178 2.0 2.0 0.00 0.00 0.00 78 1011.0
20260505102009 54 165 0.0 2.0 0.00 0.00 0.00 82 1010.4
20260505101508 53 145 1.0 2.0 0.00 0.00 0.00 84 1010.5
20260505101004 52 158 2.0 2.0 0.00 0.00 0.00 87 1010.5
20260505100501 52 66 0.0 2.0 0.00 0.00 0.00 87 1010.4
20260505095957 51 33 0.0 2.0 0.00 0.00 0.00 88 1010.4
20260505095454 51 38 1.0 3.0 0.00 0.00 0.00 88 1010.5
20260505094950 51 56 2.0 3.0 0.00 0.00 0.00 87 1010.3
20260505094447 51 33 1.0 2.0 0.00 0.00 0.00 87 1010.3
20260505093943 52 72 0.0 2.0 0.00 0.00 0.00 85 1010.2
20260505093440 52 91 2.0 2.0 0.00 0.00 0.00 84 1010.2
20260505092937 53 97 2.0 3.0 0.00 0.00 0.00 83 1010.2
20260505092434 53 132 1.0 2.0 0.00 0.00 0.00 84 1010.2
20260505091932 53 127 0.0 2.0 0.00 0.00 0.00 83 1010.2
20260505091430 53 133 2.0 2.0 0.00 0.00 0.00 83 1010.2
20260505090927 53 31 2.0 2.0 0.00 0.00 0.00 82 1010.3
20260505090425 53 49 2.0 2.0 0.00 0.00 0.00 82 1010.2
20260505085922 54 34 2.0 2.0 0.00 0.00 0.00 81 1010.1
20260505085420 54 72 1.0 2.0 0.00 0.00 0.00 79 1010.1
20260505084918 55 106 3.0 3.0 0.00 0.00 0.00 78 1010.1
20260505084416 55 163 2.0 4.0 0.00 0.00 0.00 77 1010.3
20260505083914 55 138 2.0 3.0 0.00 0.00 0.00 78 1010.1
20260505083411 55 132 2.0 3.0 0.00 0.00 0.00 78 1009.9
20260505082907 55 140 2.0 3.0 0.00 0.00 0.00 78 1010.0
20260505082403 55 144 2.0 3.0 0.00 0.00 0.00 78 1010.0
20260505081900 55 156 2.0 3.0 0.00 0.00 0.00 78 1010.0
20260505081357 55 123 2.0 2.0 0.00 0.00 0.00 78 1009.8
20260505080853 55 132 2.0 2.0 0.00 0.00 0.00 77 1010.2
20260505080349 56 121 0.0 2.0 0.00 0.00 0.00 77 1010.1
20260505075845 56 145 0.0 2.0 0.00 0.00 0.00 75 1009.9
20260505075342 57 157 1.0 2.0 0.00 0.00 0.00 74 1009.8
20260505074839 57 215 0.0 2.0 0.00 0.00 0.00 74 1009.9
20260505074336 57 219 2.0 3.0 0.00 0.00 0.00 74 1009.9
20260505073834 57 197 1.0 3.0 0.00 0.00 0.00 74 1009.7
20260505073332 57 206 3.0 4.0 0.00 0.00 0.00 74 1009.7
20260505072828 58 233 4.0 5.0 0.00 0.00 0.00 73 1009.8
20260505072324 57 211 2.0 3.0 0.00 0.00 0.00 73 1009.9
20260505071820 57 202 0.0 2.0 0.00 0.00 0.00 74 1010.0
20260505071317 57 164 1.0 2.0 0.00 0.00 0.00 74 1009.7
20260505070815 57 192 2.0 2.0 0.00 0.00 0.00 74 1009.9
20260505070311 57 169 2.0 2.0 0.00 0.00 0.00 74 1009.9
20260505065807 57 222 1.0 3.0 0.00 0.00 0.00 74 1009.8
20260505065304 57 150 0.0 1.0 0.00 0.00 0.00 74 1009.8
20260505064801 57 139 0.0 2.0 0.00 0.00 0.00 73 1009.7
20260505064258 57 158 0.0 1.0 0.00 0.00 0.00 73 1009.9
20260505063756 58 189 0.0 2.0 0.00 0.00 0.00 73 1009.8
20260505063252 58 179 2.0 2.0 0.00 0.00 0.00 73 1010.1
20260505062749 58 232 1.0 2.0 0.00 0.00 0.00 73 1010.0
20260505062246 57 192 2.0 2.0 0.00 0.00 0.00 73 1009.8
20260505061743 57 184 2.0 2.0 0.00 0.00 0.00 73 1009.9
20260505061241 57 183 1.0 2.0 0.00 0.00 0.00 73 1009.8
20260505060738 57 169 2.0 2.0 0.00 0.00 0.00 73 1009.7
20260505060235 57 191 2.0 2.0 0.00 0.00 0.00 73 1009.8
20260505055730 57 151 2.0 2.0 0.00 0.00 0.00 73 1009.9
20260505055227 57 174 1.0 2.0 0.00 0.00 0.00 72 1009.8
20260505054724 58 184 0.0 1.0 0.00 0.00 0.00 72 1010.0
20260505054222 58 180 0.0 2.0 0.00 0.00 0.00 71 1009.6
20260505053720 58 179 2.0 2.0 0.00 0.00 0.00 71 1010.2
20260505053216 58 184 2.0 3.0 0.00 0.00 0.00 70 1010.0
20260505052714 58 198 2.0 3.0 0.00 0.00 0.00 70 1009.8
20260505052210 59 198 2.0 3.0 0.00 0.00 0.00 70 1009.9
20260505051707 59 189 2.0 3.0 0.00 0.00 0.00 69 1009.8
20260505051205 59 195 2.0 2.0 0.00 0.00 0.00 69 1009.7
20260505050703 59 180 2.0 3.0 0.00 0.00 0.00 68 1009.8
20260505050201 60 187 2.0 3.0 0.00 0.00 0.00 67 1009.7
20260505041636 62 216 7.0 8.0 0.00 0.00 0.00 62 1010.0
20260505041134 63 211 6.0 11.0 0.00 0.00 0.00 61 1010.0
20260505040631 63 216 6.0 11.0 0.00 0.00 0.00 61 1010.0
20260505040128 62 209 6.0 9.0 0.00 0.00 0.00 61 1009.9
20260505035624 62 206 7.0 10.0 0.00 0.00 0.00 61 1009.9
20260505035120 63 215 5.0 10.0 0.00 0.00 0.00 61 1009.6
20260505034617 63 215 5.0 7.0 0.00 0.00 0.00 61 1010.0
20260505034114 63 199 5.0 10.0 0.00 0.00 0.00 60 1010.0
20260505033610 63 217 4.0 7.0 0.00 0.00 0.00 60 1009.9